BEIDOU-2 IGSO-6

Last updated on Mon Jun 22 2026 00:03:05 GMT+0000 (Coordinated Universal Time)

1 41434U 16021A 26172.09504345 -.00000159 00000+0 00000+0 0 9998 2 41434 60.2315 37.9988 0057439 231.3221 126.8353 1.00259258 37517
UTC large
Height (km)
Speed (km/s)
/
Latitude / Longitude
Inclination (degrees)
Orbital Period (minutes)
Azimuth
Elevation
Range (km)
Doppler Factor

Next 0 passes for location: London (51.5072 / 0.1276)

No passes found over London.
BEIDOU-2 IGSO-6